Location: Boiro
(42.6475°N, 8.8834°W)
Time: 18:37:54
(UTC+01:00)

Explorer 7 - Pass Details

Date: 03 December 2021
Orbit: 483 x 674 km, 50.3° (Epoch: 20 January)

Event Time Altitude Azimuth Distance (km) Brightness Sun altitude
Rises 09:26:32 0° 273° (W) 2,761 9.9 5.1°
Reaches altitude 10° 09:29:03 10° 284° (WNW) 1,829 8.9 5.4°
Maximum altitude 09:32:46 31° 348° (NNW) 952 7.7 6.0°
Drops below altitude 10° 09:36:18 10° 52° (NE) 1,738 9.6 6.5°
Sets 09:38:38 0° 63° (ENE) 2,599 10.6 6.8°
